Change the Weather History Date:

Thursday, February 2, 2012

  Actual Average Record
Temperature  
Mean Temperature 36 °F -  
Max Temperature 48 °F 42 °F 64 °F (1934)
Min Temperature 25 °F 26 °F -28 °F (1950)
Degree Days  
Heating Degree Days 28    
Moisture  
Dew Point 28 °F    
Average Humidity 80    
Maximum Humidity 96    
Minimum Humidity 44    
Precipitation  
Precipitation 0.00 in - - ()
Sea Level Pressure  
Sea Level Pressure 30.45 in    
Wind  
Wind Speed 4 mph (SE)    
Max Wind Speed 8 mph    
Max Gust Speed -    
Visibility 10 miles    
Events      
Averages and records for this station are not official NWS values.
T = Trace of Precipitation, MM = Missing Value Source: NWS Daily Summary

Daily Weather History Graph

Daily Weather History Graph

Search for Another Location

Airport or City:

Trip Planner

Search our weather history database for the weather conditions in past years. The results will help you decide how hot, cold, wet, or windy it might be!

Date:

Astronomy

Feb. 02, 2012 Rise Set
Actual Time 7:18 AM PST 5:03 PM PST
Civil Twilight 6:46 AM PST 5:35 PM PST
Nautical Twilight 6:10 AM PST 6:11 PM PST
Astronomical Twilight 5:35 AM PST 6:46 PM PST
Moon 12:12 PM PST (2/2) 3:11 AM PST (2/2)
Length of Visible Light 10h 49m
Length of Day
9h 45m
Waxing Gibbous, 74% of the Moon is Illuminated
Feb 2
Waxing Gibbous
Feb 7
Full
Feb 14
Last Quarter
Feb 21
New
Feb 29
First Quarter

Hourly Weather History & Observations

Time (PST) Temp. Windchill Dew Point Humidity Pressure Visibility Wind Dir Wind Speed Gust Speed Precip Events Conditions
12:53 AM 30.9 °F 24.3 °F 28.0 °F 89% 30.43 in 10.0 mi SSW 6.9 mph - N/A   Clear
1:53 AM 26.1 °F 21.9 °F 25.0 °F 96% 30.45 in 10.0 mi SSW 3.5 mph - N/A   Clear
2:53 AM 27.0 °F 21.6 °F 25.0 °F 92% 30.45 in 10.0 mi SSW 4.6 mph - N/A   Clear
3:53 AM 26.1 °F - 25.0 °F 96% 30.46 in 10.0 mi Calm Calm - N/A   Clear
4:53 AM 25.0 °F 19.3 °F 23.0 °F 92% 30.46 in 10.0 mi ESE 4.6 mph - N/A   Clear
5:53 AM 25.0 °F 20.7 °F 24.1 °F 96% 30.48 in 10.0 mi SE 3.5 mph - N/A   Clear
6:53 AM 27.0 °F 23.0 °F 25.0 °F 92% 30.48 in 10.0 mi SSE 3.5 mph - N/A   Mostly Cloudy
7:53 AM 28.0 °F - 26.1 °F 92% 30.49 in 10.0 mi Calm Calm - N/A   Clear
8:53 AM 34.0 °F - 30.9 °F 89% 30.50 in 10.0 mi Calm Calm - N/A   Clear
9:53 AM 37.9 °F - 32.0 °F 79% 30.49 in 10.0 mi Calm Calm - N/A   Mostly Cloudy
10:53 AM 39.9 °F 36.7 °F 32.0 °F 73% 30.50 in 10.0 mi North 4.6 mph - N/A   Overcast
11:53 AM 44.1 °F - 32.0 °F 63% 30.48 in 10.0 mi Calm Calm - N/A   Overcast
12:53 PM 46.9 °F - 32.0 °F 56% 30.45 in 10.0 mi Calm Calm - N/A   Mostly Cloudy
1:53 PM 48.0 °F - 30.9 °F 52% 30.43 in 10.0 mi Calm Calm - N/A   Clear
2:53 PM 48.9 °F - 28.9 °F 46% 30.43 in 10.0 mi Variable 4.6 mph - N/A   Clear
3:53 PM 48.9 °F - 28.0 °F 44% 30.42 in 10.0 mi NNE 5.8 mph - N/A   Clear
4:53 PM 43.0 °F 38.2 °F 30.9 °F 62% 30.42 in 10.0 mi NE 8.1 mph - N/A   Clear
5:53 PM 36.0 °F 29.6 °F 28.0 °F 73% 30.43 in 10.0 mi NE 8.1 mph - N/A   Clear
6:53 PM 36.0 °F 30.3 °F 28.9 °F 76% 30.43 in 10.0 mi NE 6.9 mph - N/A   Clear
7:53 PM 30.9 °F 27.5 °F 27.0 °F 85% 30.43 in 10.0 mi East 3.5 mph - N/A   Clear
8:53 PM 32.0 °F 28.7 °F 27.0 °F 82% 30.42 in 10.0 mi South 3.5 mph - N/A   Clear
9:53 PM 30.0 °F 25.2 °F 28.0 °F 92% 30.41 in 10.0 mi South 4.6 mph - N/A   Clear
10:53 PM 30.9 °F - 27.0 °F 85% 30.40 in 10.0 mi Calm Calm - N/A   Clear
11:53 PM 33.1 °F 28.7 °F 28.9 °F 85% 30.40 in 10.0 mi North 4.6 mph - N/A   Clear